TimeCST,TemperatureF,Dew PointF,Humidity,Sea Level PressureIn,VisibilityMPH,Wind Direction,Wind SpeedMPH,Gust SpeedMPH,PrecipitationIn,Events,Conditions,WindDirDegrees,DateUTC
12:51 AM,51.1,46.0,83,30.28,10.0,NW,9.2,-,N/A,,Mostly Cloudy,320,2013-01-06 06:51:00
1:51 AM,50.0,45.0,83,30.29,10.0,NW,8.1,-,N/A,,Mostly Cloudy,320,2013-01-06 07:51:00
2:51 AM,48.0,44.1,86,30.28,10.0,NNW,10.4,-,N/A,,Partly Cloudy,330,2013-01-06 08:51:00
3:51 AM,46.9,43.0,86,30.28,10.0,NNW,10.4,-,N/A,,Clear,330,2013-01-06 09:51:00
4:51 AM,46.0,42.1,86,30.28,10.0,NNW,9.2,-,N/A,,Clear,330,2013-01-06 10:51:00
5:51 AM,44.1,39.9,85,30.29,10.0,NNW,9.2,-,N/A,,Clear,340,2013-01-06 11:51:00
6:51 AM,43.0,39.0,86,30.30,9.0,North,8.1,-,N/A,,Clear,350,2013-01-06 12:51:00
7:51 AM,42.1,39.0,89,30.32,4.0,North,8.1,-,N/A,,Scattered Clouds,360,2013-01-06 13:51:00
8:51 AM,46.9,43.0,86,30.35,5.0,North,6.9,-,N/A,,Mostly Cloudy,350,2013-01-06 14:51:00
9:51 AM,51.1,43.0,74,30.37,10.0,NNW,9.2,-,N/A,,Mostly Cloudy,340,2013-01-06 15:51:00
10:51 AM,55.9,44.1,64,30.35,10.0,North,11.5,-,N/A,,Scattered Clouds,350,2013-01-06 16:51:00
11:51 AM,61.0,46.0,58,30.33,10.0,North,12.7,-,N/A,,Partly Cloudy,350,2013-01-06 17:51:00
12:51 PM,63.0,42.1,46,30.30,10.0,NNW,11.5,-,N/A,,Partly Cloudy,340,2013-01-06 18:51:00
1:51 PM,66.0,41.0,40,30.27,10.0,NE,10.4,17.3,N/A,,Partly Cloudy,40,2013-01-06 19:51:00
2:51 PM,66.2,39.2,37,30.26,10.0,NNE,5.8,17.3,N/A,,Partly Cloudy,30,2013-01-06 20:51:00
3:51 PM,64.9,42.1,43,30.27,10.0,East,9.2,-,N/A,,Clear,100,2013-01-06 21:51:00
4:51 PM,60.8,42.8,52,30.27,10.0,East,11.5,-,N/A,,Partly Cloudy,100,2013-01-06 22:51:00
5:51 PM,57.0,43.0,59,30.28,10.0,East,9.2,-,N/A,,Partly Cloudy,100,2013-01-06 23:51:00
6:51 PM,53.1,43.0,69,30.29,10.0,East,6.9,-,N/A,,Clear,100,2013-01-07 00:51:00
7:51 PM,53.1,44.1,71,30.30,10.0,East,4.6,-,N/A,,Clear,90,2013-01-07 01:51:00
8:51 PM,48.9,41.0,74,30.31,10.0,Calm,Calm,-,N/A,,Clear,0,2013-01-07 02:51:00
9:51 PM,50.0,41.0,71,30.31,10.0,NE,5.8,-,N/A,,Clear,50,2013-01-07 03:51:00
10:51 PM,50.0,41.0,71,30.32,10.0,NE,9.2,-,N/A,,Clear,40,2013-01-07 04:51:00
11:51 PM,46.9,37.9,71,30.32,10.0,NE,6.9,-,N/A,,Clear,40,2013-01-07 05:51:00